Location: Invercargill
(46.4000°S, 168.3500°E)
Time: 19:41:53
(UTC+12:00)

Cosmos 1606 - Pass Details

Date: 14 May 2021
Orbit: 503 x 525 km, 82.5° (Epoch: 15 June)

Event Time Altitude Azimuth Distance (km) Brightness Sun altitude
Rises 18:27:33 0° 180° (S) 2,663 6.2 -10.9°
Reaches altitude 10° 18:29:55 10° 169° (S) 1,764 5.1 -11.2°
Maximum altitude 18:33:21 30° 106° (ESE) 954 3.5 -11.8°
Drops below altitude 10° 18:36:43 10° 44° (NE) 1,734 5.1 -12.4°
Sets 18:39:01 0° 32° (NNE) 2,609 6.1 -12.8°
